Zurück zum Katalog

ET-001D

AktivSSO
NORAD 100100·PAYLOAD·🇺🇸 United States

Gestartet Jul 7, 2026 von Vandenberg Space Force Base

Loading…

Nächste Überflüge (nächste 24 Stunden)

TLE

AktuellSource: Space-Track

Epoche: Sep 14, 2026, 12:57 UTC

1 A0100U 26156CC  26257.54010544  .00005462  00000-0  53652-3 0  9997
2 A0100  97.7427 156.8698 0006347 289.4417  70.6116 14.92554096 10329

Verfolge ET-001D in Echtzeit mit AllMySat

Download on the App Store